Weather History for KFSM - September, 2012

Change the Weather History Date:

Monday, September 3, 2012

  Actual Average Record
Temperature  
Mean Temperature 90 °F 79 °F  
Max Temperature 105 °F 90 °F 109 °F (2000)
Min Temperature 75 °F 67 °F 50 °F (1952)
Degree Days  
Heating Degree Days 0 0  
Month to date heating degree days 0 0  
Since 1 July heating degree days 0 0  
Cooling Degree Days 25 14  
Month to date cooling degree days 69 42  
Year to date cooling degree days 2485 1737  
Growing Degree Days 40 (Base 50)    
Moisture  
Dew Point 68 °F    
Average Humidity 57    
Maximum Humidity 87    
Minimum Humidity 26    
Precipitation  
Precipitation 0.00 in 0.13 in 3.15 in (2008)
Month to date precipitation 0.00 0.36  
Year to date precipitation 26.46 29.72  
Sea Level Pressure  
Sea Level Pressure 29.85 in    
Wind  
Wind Speed 3 mph (NW)    
Max Wind Speed 13 mph    
Max Gust Speed 16 mph    
Visibility 10 miles    
Events      
T = Trace of Precipitation, MM = Missing Value Source: NWS Daily Summary

Daily Weather History Graph

Daily Weather History Graph

Search for Another Location

Airport or City:

Trip Planner

Search our weather history database for the weather conditions in past years. The results will help you decide how hot, cold, wet, or windy it might be!

Date:

Astronomy

Sep. 03, 2012 Rise Set
Actual Time 6:51 AM CDT 7:40 PM CDT
Civil Twilight 6:25 AM CDT 8:06 PM CDT
Nautical Twilight 5:55 AM CDT 8:37 PM CDT
Astronomical Twilight 5:23 AM CDT 9:08 PM CDT
Moon 9:10 PM CDT (9/3) 9:51 AM CDT (9/3)
Length of Visible Light 13h 40m
Length of Day
12h 49m
Waning Gibbous, 90% of the Moon is Illuminated
Sep 3
Waning Gibbous
Sep 8
Last Quarter
Sep 15
New
Sep 22
First Quarter
Sep 29
Full

Hourly Weather History & Observations

Time (CDT) Temp. Heat Index Dew Point Humidity Pressure Visibility Wind Dir Wind Speed Gust Speed Precip Events Conditions
12:53 AM 80.1 °F 83.2 °F 70.0 °F 71% 29.85 in 10.0 mi Calm Calm - N/A   Clear
1:53 AM 79.0 °F - 71.1 °F 77% 29.86 in 10.0 mi NE 4.6 mph - N/A   Clear
2:53 AM 78.1 °F - 72.0 °F 81% 29.86 in 10.0 mi ENE 3.5 mph - N/A   Clear
3:53 AM 79.0 °F - 72.0 °F 79% 29.86 in 10.0 mi NE 3.5 mph - N/A   Clear
4:53 AM 77.0 °F - 72.0 °F 84% 29.87 in 10.0 mi Calm Calm - N/A   Clear
5:53 AM 75.9 °F - 71.1 °F 85% 29.87 in 10.0 mi Calm Calm - N/A   Clear
6:53 AM 75.0 °F - 71.1 °F 87% 29.89 in 10.0 mi Calm Calm - N/A   Clear
7:53 AM 77.0 °F - 72.0 °F 84% 29.91 in 10.0 mi Calm Calm - N/A   Clear
8:53 AM 82.0 °F 86.7 °F 72.0 °F 71% 29.91 in 10.0 mi Calm Calm - N/A   Clear
9:53 AM 89.1 °F 93.7 °F 69.1 °F 52% 29.90 in 10.0 mi Calm Calm - N/A   Clear
10:53 AM 93.0 °F 97.4 °F 68.0 °F 44% 29.90 in 10.0 mi WSW 8.1 mph - N/A   Clear
11:53 AM 96.1 °F 101.0 °F 68.0 °F 40% 29.89 in 10.0 mi West 9.2 mph - N/A   Clear
12:53 PM 99.0 °F 105.5 °F 69.1 °F 38% 29.87 in 10.0 mi WNW 5.8 mph - N/A   Clear
1:53 PM 102.0 °F 106.6 °F 66.0 °F 31% 29.86 in 10.0 mi WNW 9.2 mph - N/A   Clear
2:53 PM 102.9 °F 106.8 °F 64.9 °F 29% 29.83 in 10.0 mi WNW 6.9 mph - N/A   Clear
3:53 PM 102.9 °F 106.1 °F 64.0 °F 28% 29.81 in 10.0 mi Variable 4.6 mph - N/A   Clear
4:53 PM 104.0 °F 106.6 °F 63.0 °F 26% 29.80 in 10.0 mi NW 6.9 mph - N/A   Clear
5:53 PM 104.0 °F 106.6 °F 63.0 °F 26% 29.79 in 10.0 mi North 5.8 mph - N/A   Clear
6:53 PM 102.0 °F 104.6 °F 63.0 °F 28% 29.79 in 10.0 mi Calm Calm - N/A   Clear
7:53 PM 93.0 °F 95.9 °F 66.0 °F 41% 29.79 in 10.0 mi Calm Calm - N/A   Clear
8:53 PM 89.1 °F 92.1 °F 66.9 °F 48% 29.81 in 10.0 mi Calm Calm - N/A   Clear
9:53 PM 89.1 °F 92.1 °F 66.9 °F 48% 29.82 in 10.0 mi WSW 3.5 mph - N/A   Clear
10:53 PM 86.0 °F 88.8 °F 66.9 °F 53% 29.83 in 10.0 mi SW 3.5 mph - N/A   Clear
11:53 PM 84.9 °F 88.2 °F 68.0 °F 57% 29.84 in 10.0 mi Calm Calm - N/A   Clear